www.pogodaiklimat.ru

Архив погоды в Курске (Курская область, Россия)

Время
(UTC), дата
15 9.05
18 9.05
21 9.05
00 10.05
03 10.05
06 10.05
09 10.05
12 10.05
15 10.05
18 10.05
21 10.05
00 11.05
03 11.05
06 11.05
09 11.05
12 11.05
15 11.05
18 11.05
21 11.05
00 12.05
03 12.05
06 12.05
09 12.05
12 12.05
15 12.05
18 12.05
21 12.05
00 13.05
03 13.05
06 13.05
09 13.05
12 13.05
15 13.05
18 13.05
21 13.05
00 14.05
03 14.05
06 14.05
09 14.05
12 14.05
15 14.05
18 14.05
21 14.05
00 15.05
03 15.05
06 15.05
09 15.05
12 15.05
15 15.05
18 15.05
21 15.05
00 16.05
03 16.05
06 16.05
09 16.05
12 16.05
Ветер
(напр.,м/с)
Видим. Явления Облачность Т
(С)
Тd
(С)
f
(%)
Тe
(С)
Тes
(С)
Комфортность P
(гПа)
Po
(гПа)
Тmin
(С)
Tmax
(С)
R
(мм)
R24
(мм)
S
(см)
СЗ 4
{11}
10 км 3/3 600 м
[Sc]
+12.7 -7.0 25 +11 +13 тепло 1021.2 991.5 0.6
С 2
{10}
10 км 1/1 600 м
[Sc]
+9.4 -5.8 34 +8 +8 по сезону 1022.5 992.5 +13.9 0.0
С 2 10 км ясно +7.0 -3.9 46 +5 +5 по сезону 1022.8 992.5
СЗ 1 10 км 5/0
[Ci fib]
+3.5 -2.4 65 +2 +2 холодно 1022.8 992.1
СЗ 2 10 км 5/0
[Ac As]
+4.1 -1.5 67 +2 +2 очень
холодно
1022.3 991.7 +3.0
СЗ 4
{10}
10 км 4/4 1000 м
[Cu hum]
+8.8 -2.7 44 +6 +10 холодно 1021.0 991.0 +3.0
СЗ 4 10 км 9/9 600 м
[Cu Sc]
+9.3 -5.9 34 +7 +8 очень
холодно
1019.5 989.6
СЗ 3
{10}
10 км 9/9 600 м
[Cu Sc]
+10.3 -5.2 33 +9 +10 очень
холодно
1017.8 988.0
СЗ 2
{10}
10 км 9/6 600 м
[Cu Sc Ci fib]
+9.3 -6.1 33 +8 +9 очень
холодно
1017.0 987.1
СЗ 1
{10}
10 км 6/0
[Ac trans Ci fib]
+6.8 -5.4 41 +7 +7 холодно 1016.6 986.4 +10.9
СЗ 2 10 км 8/0
[Ac trans Ci fib]
+6.8 -4.1 46 +5 +5 холодно 1015.5 985.4
СЗ 2 10 км 8/6 600 м
[Sc Ci fib]
+6.3 -2.2 54 +4 +4 холодно 1013.8 983.7
СЗ 2 10 км 10/8 600 м
[Sc Ac As]
+7.0 -2.3 52 +5 +5 холодно 1012.2 982.2 +5.8
СЗ 3 10 км 9/3 600 м
[Sc Cc]
+11.3 -2.6 38 +10 +14 прохладно 1011.6 982.0 +5.8
СЗ 4-10
{13}
10 км 9/6 1000 м
[Sc Ac trans Ci fib]
+13.2 -2.8 33 +12 +15 прохладно 1011.1 981.8
СЗ 4
{13}
10 км 10/3 1000 м
[Sc Cs]
+14.6 -1.6 33 +14 +18 прохладно 1011.3 982.1
СЗ 2
{10}
10 км 9/5 1000 м
[Sc Ac trans Ci fib]
+14.6 -2.1 32 +15 +15 по сезону 1011.0 981.9
З 2
{10}
10 км 8/1 600 м
[Sc Ci fib]
+12.6 -0.7 40 +12 +12 по сезону 1011.6 982.2 +16.0
З 1 10 км 8/0
[Ci fib]
+9.9 -0.8 47 +10 +10 по сезону 1012.1 982.5
З 1 10 км 9/0
[Ac trans Ci fib]
+8.8 -0.1 54 +9 +9 по сезону 1012.4 982.6
З 2 10 км 9/6 600 м
[Sc Ac trans Ci fib]
+9.7 +1.7 57 +8 +9 прохладно 1012.7 983.0 +8.6
ЮЗ 2 10 км 9/3 600 м
[Sc Ac As]
+14.7 +3.9 48 +15 +17 тепло 1011.8 982.6 +8.6
ЮЗ 4-10
{10}
10 км 5/0
[Ac trans]
+21.3 +2.8 30 +21 +29 комфорт 1010.2 981.7
ЮЗ 5
{10}
10 км 8/0
[Ac trans Ci fib]
+23.4 +5.7 32 +24 +28 комфорт 1008.0 979.8
ЮЗ 4
{14}
10 км 9/0
[Ci fib]
+23.9 +5.1 30 +24 +25 комфорт 1005.3 977.2
ЮЗ 6-14
{14}
10 км 8/3 600 м
[Sc Ci fib]
+21.9 +3.4 30 +22 +22 комфорт 1002.8 974.6 +24.4
З 4
{17}
10 км {ливн. дождь} 10/10 600 м
[Sc]
+14.4 +12.7 90 +13 +13 по сезону 1006.6 977.7
З 4 10 км {ливн. дождь} 4/3 300 м
[St Ci fib]
+12.2 +10.6 90 +10 +10 по сезону 1008.4 979.1
СЗ 3 10 км 3/0
[Ci fib]
+10.2 +7.7 84 +8 +9 прохладно 1010.3 980.8 +10.1 5
З 3 10 км 8/6 600 м
[Cu med, cong Ci fib]
+13.0 +7.9 71 +12 +14 по сезону 1011.4 982.1 +10.1 5
З 4-10
{10}
10 км 9/8 600 м
[Cu med, cong Ci fib]
+15.4 +5.6 52 +15 +16 по сезону 1011.3 982.3
З 4
{12}
10 км 9/8 600 м
[Cu med, cong Ci fib]
+15.6 +4.4 47 +15 +16 прохладно 1011.6 982.5
З 4-10
{10}
10 км 8/5 1000 м
[Cu med, cong Ac trans]
+16.0 +2.3 40 +15 +16 по сезону 1011.2 982.2
З 2
{10}
10 км 3/0
[Ci fib]
+12.5 +3.4 54 +12 +12 по сезону 1012.5 983.1 +16.9
З 2 10 км ясно +10.3 +3.0 61 +9 +9 прохладно 1012.4 982.8
З 1 10 км 3/0
[Ci fib]
+8.6 +3.1 68 +8 +8 по сезону 1011.8 982.0
Ю 1 10 км 8/3 600 м
[Sc Ac trans Ci fib]
+9.2 +3.8 69 +9 +9 по сезону 1011.1 981.4 +7.8
З 1 10 км в посл. час ливневой дождь 9/8 600 м
[Sc diur, vesp Ac trans]
+11.0 +6.7 75 +11 +12 по сезону 1010.7 981.2 +7.8 0.0
ЮЗ 3 10 км 9/4 1000 м
[Cu hum Ac trans Cc]
+17.4 +5.3 45 +17 +22 тепло 1009.0 980.2
ЮЗ 4-10
{11}
10 км в посл. час ливневой дождь 8/5 1000 м
[Sc diur, vesp Ac trans Ci fib]
+17.7 +5.5 45 +17 +20 по сезону 1007.8 979.0
ЮЗ 2
{11}
10 км {гроза, ливн. дождь} 9/6 600 м
[Cb cap Ac trans Ci fib]
+13.1 +8.9 76 +12 +13 прохладно 1007.7 978.5 2
Ю 1
{11}
10 км в посл. час ливневой дождь {гроза} 9/8 600 м
[Cb cap Ci fib]
+10.0 +9.1 94 +9 +9 холодно 1007.9 978.4 +17.9 5
З 1 10 км {ливн. дождь} 8/5 600 м
[Sc Ac trans Ci fib]
+9.6 +8.3 92 +9 +9 прохладно 1008.0 978.5
З 1 10 км {ливн. дождь} 9/0
[Ac trans Ci fib]
+7.9 +5.6 85 +7 +7 прохладно 1008.3 978.6
З 1 10 км 8/3 600 м
[Sc Ac trans Ci fib]
+7.9 +6.4 90 +7 +7 прохладно 1008.1 978.4 +7.6 3
З 2 10 км 9/8 600 м
[Sc Ac trans]
+11.2 +7.7 79 +10 +11 прохладно 1008.2 978.8 +7.6 0.0
З 4
{10}
10 км 9/8 600 м
[Sc Ac trans]
+12.6 +6.7 67 +11 +12 прохладно 1008.2 979.0
З 5
{11}
10 км 6/4 600 м
[Cu Sc Ac trans]
+14.4 +5.5 55 +13 +16 холодно 1007.6 978.6
З 5
{15}
10 км {ливн. дождь} 5/3 600 м
[Sc Ac As Ci fib]
+14.1 +6.2 59 +13 +13 прохладно 1007.4 978.3 0.0
З 3 10 км {ливн. дождь} 8/3 600 м
[Sc Ac trans Ci fib]
+10.2 +6.3 77 +8 +8 холодно 1009.2 979.7 +15.2 0.0
З 2
{10}
10 км {ливн. дождь} 3/0
[Ac As]
+8.1 +6.4 89 +6 +6 холодно 1009.7 980.0
З 2 10 км {ливн. дождь} 9/0
[Ac As]
+7.1 +5.9 92 +5 +5 прохладно 1010.4 980.5
З 2 10 км 8/4 600 м
[Sc Ac As]
+7.3 +5.4 88 +5 +5 холодно 1011.1 981.2 +6.9 0.5
З 3 10 км 1/0
[Ci fib]
+12.0 +5.0 62 +11 +17 по сезону 1011.2 981.8 +6.9 0.5
З 4
{10}
10 км 8/8 600 м
[Cu med, cong]
+14.4 +1.1 40 +13 +15 по сезону 1011.4 982.2
З 4
{11}
10 км 6/6 600 м
[Cu med, cong]
+16.2 +0.2 34 +16 +19 по сезону 1010.5 981.5
Местоположение метеостанции Курск (Курская область, Россия): широта 51.77 долгота 36.17 высота над уровнем моря 247 м.
В архиве по умолчанию представлена погода в Курске за последнюю неделю. Архивные данные за месяц целиком и за предыдущие месяцы, начиная с января 2011 года, Вы можете получить, выбрав интересующий диапазон дат из раскрывающегося списка и нажав кнопку "Найти!".
*Определитесь, кто Вы:
Внимание! Время в таблицах - всемирное. Для получения местного времени необходимо прибавить поправку, которая равна 3 ч.
Смотрите также архив погоды в соседних городах и на ближайших метеорологических станциях:
Партнеры нашего сайта:      
Пояснения к столбцам:
  • Ветер - указаны скорость ветра в м/с - средняя за 10 мин, порывы в срок и между сроками (в фигурных скобках) и направление, откуда дует ветер: С - северный,
  • СВ - северо-восточный, В - восточный, ЮВ - юго-восточный, Ю - южный, ЮЗ - юго-западный, З - западный, СЗ - северо-западный.
  • Видимость - горизонтальная дальность видимости в метрах или километрах. При видимости от 1 до 10 км при отсутствии осадков обычно наблюдается дымка, при ухудшении видимости до 1 км и менее - туман. В сухую погоду видимость может ухудшаться дымом, пылью или мглою.
  • Явления - указаны атмосферные явления, наблюдавшиеся в срок или в последний час перед сроком; фигурными скобками обозначены явления, наблюдавшиеся между сроками (за 1-3 часа до срока); квадратными скобками обозначены град или гололедные отложения с указанием их диаметра в мм.
  • Облачность - указаны через наклонную черту общая и нижняя облачность в баллах и высота нижней границы облаков в метрах; квадратными скобками обозначены формы облаков: Ci - перистые, Cs - перисто-слоистые, Cc - перисто-кучевые, Ac - высококучевые, As - высокослоистые, Sc - слоисто-кучевые, Ns - слоисто-дождевые, Cu - кучевые, Cb - кучево-дождевые. Подробнее классификацию облаков см. в Атласе облаков (PDF).
  • T - Температура воздуха - температура, измеренная на высоте 2 м над землей.
  • Td - Температура точки росы - температура, при понижении до которой содержащийся в воздухе водяной пар достигнет насыщения.
  • f - Относительная влажность воздуха - влажноcть воздуха, измеренная на высоте 2 м над землей.
  • Te - Эффективная температура - температура, которую ощущает одетый по сезону человек в тени. Характеристика душности погоды. При расчете учитывается влияние влажности воздуха и скорости ветра на теплоощущения человека.
  • Tes - Эффективная температура на солнце - температура, которую ощущает человек, с поправкой на солнечный нагрев. Характеристика знойности погоды. Зависит от высоты солнца над горизонтом, облачности и скорости ветра. Ночью, в пасмурную погоду, а также при ветре 12 м/с и более поправка равна нулю.
  • P - Атмосферное давление - приведенное к уровню моря атмосферное давление.
  • Po - Атмосферное давление - измеренное на уровне метеостанции атмосферное давление.
  • Tmin - Минимальная температура - минимум температуры воздуха на высоте 2 м над землей.
  • Tmax - Максимальная температура - максимум температуры воздуха на высоте 2 м над землей.
  • R - Количество осадков - Количество выпавших осадков за период времени, мм. При наведении курсора мыши на число - период времени, за который выпало указанное количество осадков.
  • R24 - Количество осадков - Количество выпавших осадков за 24 часа, мм.
  • S - Снежный покров - Высота снежного покрова, см. При наведении курсора мыши на число - состояние снежного покрова и степень покрытия местности в баллах.